Dewpoint
3 5 5 3 -0 -3 -3 -1 0 -1 -1 4 6 5 7 9 9 9 9 8 6 5 2 -1 -4 -7 -12 -14 -16 -16 -17 -18 -18 -18 -18 -17 -16 -16 -16 -17 -17 -18 -18
7 6 7 5 2 2 -0 -0 0 1 0 3 5 6 6 7 8 9 9 8 6 5 3 0 -3 -6 -9 -13 -15 -17 -16 -17 -18 -17 -16 -14 -14 -13 -13 -14 -15 -16 -16
8 8 8 7 5 5 6 6 5 6 7 8 8 9 8 8 7 8 8 7 6 6 4 2 -1 -3 -6 -10 -14 -15 -16 -16 -16 -15 -14 -12 -11 -11 -11 -12 -13 -13 -14
10 9 9 8 7 7 8 8 8 7 7 9 9 9 9 9 8 7 7 7 6 6 5 4 1 -1 -3 -7 -10 -14 -15 -14 -15 -15 -13 -11 -10 -10 -10 -10 -11 -11 -12
10 9 8 8 7 8 9 10 10 9 8 8 9 10 10 9 9 8 7 6 5 6 6 5 3 1 -1 -3 -7 -9 -12 -14 -14 -15 -14 -12 -11 -9 -9 -9 -9 -10 -9
10 9 9 9 8 8 8 10 11 11 10 9 9 10 10 10 9 9 7 6 5 6 7 6 5 3 0 -1 -4 -1 -4 -12 -14 -15 -15 -14 -13 -11 -10 -9 -9 -8 -7
11 11 10 10 10 9 9 9 10 11 11 11 10 9 10 10 10 9 8 6 6 6 6 6 6 5 3 -0 -2 -5 2 -1 -11 -14 -14 -14 -14 -13 -13 -12 -12 -11 -10
11 12 11 11 11 10 10 10 11 11 11 11 11 10 10 10 9 9 8 7 6 6 5 6 6 5 5 3 -0 -2 -4 3 1 -10 -13 -13 -12 -12 -12 -12 -11 -6 -2
11 11 11 10 11 11 12 11 11 11 11 11 11 11 10 9 9 8 7 7 7 6 5 5 6 5 4 3 2 1 -1 -3 -3 -5 -1 -3 -5 -9 -8 -6 -1 1 2
10 10 10 10 11 12 12 12 12 12 12 12 11 11 11 10 9 8 8 7 7 6 6 6 5 4 3 3 2 1 0 -0 -3 -5 -0 1 1 1 1 1 1 2 2
9 8 10 10 10 10 10 11 12 11 11 11 11 10 10 11 10 9 8 9 8 7 7 7 7 6 5 5 4 1 0 1 -1 -3 -3 -2 -1 -1 0 1 2 2 2
8 11 10 9 8 6 10 10 12 11 10 10 11 11 10 10 10 10 9 9 9 8 8 7 6 6 6 4 4 4 3 1 -1 1 1 0 1 2 1 1 0 0 0
7 8 10 10 9 10 10 10 10 10 9 9 9 10 9 10 9 10 9 9 9 8 7 7 5 5 5 4 4 3 1 -1 2 2 2 2 1 1 0 0 0 -0 -0
9 10 10 10 9 9 10 10 9 9 9 9 9 8 8 8 8 9 9 9 8 8 7 7 7 5 5 3 3 1 0 2 2 1 1 0 0 -0 -0 -1 -1 -2 -2
6 9 10 9 10 10 9 9 9 8 6 8 8 8 7 7 8 8 9 8 8 7 6 6 5 5 4 1 0 1 1 1 1 1 0 0 -0 -1 -1 -2 -3 -3 -3
3 6 8 9 9 9 9 8 8 3 1 3 6 4 7 5 6 5 7 7 7 6 5 5 5 4 2 2 2 2 1 1 0 -0 -1 -0 -1 -2 -4 -6 -8 -7 -8
1 2 3 3 3 3 2 1 0 -0 0 1 2 3 5 5 5 4 5 5 6 5 4 4 3 3 2 2 1 0 0 0 -0 -0 -1 -1 -5 -9 -15 -10 -5 -6 -6
1 0 0 -0 -1 -1 -1 -1 -0 0 1 2 3 3 4 4 4 4 4 5 4 3 3 2 2 2 1 1 0 -0 -1 -2 -2 -4 -13 -16 -17 -16 -18 -17 -17 -14 -9
0 0 0 -0 -0 -0 0 1 2 2 3 3 3 3 3 3 4 4 4 3 3 2 1 0 0 0 0 -0 -1 -1 -2 -10 -15 -15 -14 -17 -21 -21 -17 -15 -13 -9 -10
1 1 1 1 1 2 2 2 3 3 3 3 2 2 2 3 3 2 1 -0 -0 0 0 0 0 -0 -1 -2 -10 -14 -14 -15 -15 -15 -20 -20 -15 -14 -13 -13 -13 -13 -13
2 2 3 2 2 3 2 3 3 2 2 2 2 1 1 0 -0 -1 -1 -0 -0 0 -0 -1 -1 -4 -14 -14 -15 -16 -13 -13 -16 -19 -15 -14 -13 -13 -13 -12 -12 -12 -12
2 2 1 1 1 1 1 0 -0 -0 -0 -1 -1 -1 -1 -1 -1 -1 -1 -1 -1 -2 -4 -10 -20 -20 -17 -19 -16 -14 -14 -18 -16 -14 -13 -13 -13 -13 -12 -12 -11 -11 -11
0 -0 -0 -0 -1 -1 -1 -1 -1 -1 -1 -1 -1 -1 -1 -2 -1 -2 -5 -11 -21 -25 -23 -22 -21 -19 -17 -15 -16 -18 -20 -16 -14 -13 -13 -13 -13 -12 -12 -12 -12 -12 -11
-1 -1 -1 -1 -1 -2 -1 -2 -2 -3 -4 -4 -5 -9 -16 -20 -23 -24 -24 -23 -20 -18 -17 -15 -15 -16 -17 -19 -21 -20 -15 -13 -12 -12 -12 -12 -12 -13 -13 -13 -13 -11 -11
-1 -2 -2 -2 -5 -8 -12 -21 -22 -23 -23 -23 -23 -23 -23 -24 -24 -27 -27 -27 -23 -19 -18 -19 -20 -21 -19 -14 -12 -12 -12 -12 -12 -11 -11 -11 -11 -13 -15 -12 -12 -11 -10
-2 -5 -17 -20 -22 -23 -24 -24 -25 -25 -25 -26 -26 -25 -25 -25 -25 -25 -25 -25 -24 -21 -20 -19 -19 -14 -12 -12 -12 -12 -12 -11 -11 -11 -10 -10 -10 -11 -14 -13 -12 -11 -11
Wind_Speed
13 10 8 9 9 11 10 11 11 12 13 13 13 12 14 15 14 14 13 15 14 14 14 13 10 9 8 8 7 7 6 5 5 4 3 3 2 1 1 1 1 1 2
10 11 8 8 9 9 9 10 11 11 12 14 14 14 14 16 16 17 17 18 18 16 16 15 14 12 10 10 9 8 8 7 6 5 4 4 3 2 1 1 2 2 2
10 10 9 10 11 9 9 10 12 13 14 15 16 14 16 17 19 20 22 22 21 19 17 17 17 15 13 12 11 11 10 9 9 8 7 6 5 4 3 2 2 2 3
13 13 13 14 12 12 11 12 12 15 16 17 17 16 19 21 22 24 25 25 24 22 20 18 18 18 17 15 14 13 13 12 11 10 9 9 7 6 5 5 4 3 3
16 16 17 16 15 15 16 15 15 17 20 20 20 20 22 24 25 26 27 26 26 25 22 21 20 20 20 18 17 16 15 14 14 13 11 10 10 9 8 8 7 6 5
19 19 19 20 19 20 21 21 21 21 22 23 23 24 25 26 27 29 30 29 28 28 26 23 23 22 22 21 20 18 18 17 15 14 13 12 11 12 11 10 9 8 7
21 21 20 21 23 24 24 24 25 25 25 23 24 27 29 30 31 33 33 33 33 31 30 28 26 26 25 23 22 22 20 20 18 16 16 15 14 12 11 10 10 10 9
24 23 23 23 23 24 25 26 28 29 29 27 28 29 29 31 35 36 36 36 36 34 34 32 31 31 28 26 25 24 24 19 18 18 18 17 15 15 13 13 12 11 10
27 27 27 28 28 27 27 27 28 30 32 31 32 30 13 19 23 24 24 29 35 36 36 35 35 34 32 29 26 26 26 27 24 19 14 15 15 15 14 13 11 10 11
29 31 31 30 30 31 33 33 33 34 33 36 36 35 38 38 21 20 24 18 19 30 33 36 37 35 32 29 26 27 28 26 24 20 12 8 8 10 10 11 12 12 12
24 25 25 26 27 29 32 35 36 36 35 36 37 34 35 38 41 41 35 33 29 24 27 33 37 38 40 34 25 29 28 30 31 30 29 18 14 13 11 12 14 14 16
25 20 21 21 21 22 21 21 25 26 30 30 32 32 31 32 33 37 41 46 45 40 38 35 37 39 37 34 34 38 40 33 34 34 28 31 30 32 28 24 21 18 19
24 22 22 21 20 18 18 19 17 20 24 29 31 31 32 31 34 36 38 39 40 36 34 34 33 36 38 38 37 37 34 35 33 30 26 28 22 24 24 21 22 20 17
23 23 23 22 21 19 20 20 20 20 22 23 24 25 26 27 27 27 29 35 36 34 31 32 33 32 33 34 32 31 33 37 31 30 29 24 22 22 22 22 24 20 19
22 20 20 21 21 18 19 18 21 23 21 19 20 22 23 22 24 24 27 29 32 27 28 28 28 25 28 28 30 33 34 31 28 28 26 25 21 21 21 20 18 19 19
19 20 20 21 22 22 23 25 24 22 20 18 20 21 22 21 22 21 23 21 22 24 26 23 20 21 21 22 26 32 29 24 24 22 20 19 19 20 19 21 23 21 21
16 17 19 19 19 18 19 21 20 18 17 16 16 16 16 17 17 20 21 21 20 19 20 21 18 16 17 18 18 19 18 17 17 18 18 17 16 17 19 18 18 18 17
14 14 14 14 15 15 14 14 14 14 14 13 12 11 11 13 15 18 19 17 15 14 13 14 12 8 9 10 12 13 12 13 13 13 12 13 15 16 18 18 18 18 16
8 9 9 10 11 11 11 11 11 10 8 6 7 8 10 11 11 11 12 11 10 10 10 9 9 7 8 10 11 11 10 11 12 11 12 15 15 15 15 14 14 15 17
8 8 9 9 9 8 7 7 6 6 5 4 4 6 5 5 5 5 6 7 7 7 8 8 9 8 9 8 8 9 9 11 11 12 13 11 10 10 11 13 15 17 18
7 6 6 6 5 4 4 3 2 3 2 1 1 1 1 1 3 4 4 5 7 8 8 7 7 6 7 8 9 10 9 10 11 10 8 6 9 10 12 14 16 17 17
5 5 5 4 5 5 6 7 7 5 4 4 2 1 1 1 2 3 5 7 7 6 6 7 8 8 10 10 10 10 11 11 6 6 9 5 11 10 13 13 14 16 18
7 7 9 9 10 12 12 11 10 6 4 3 2 1 2 3 4 6 6 6 6 6 6 7 9 10 10 11 11 10 9 9 9 7 13 9 9 9 13 15 17 17 14
11 13 13 12 12 13 11 9 8 4 2 1 2 3 3 4 6 6 6 7 7 8 9 10 9 10 10 11 10 9 9 10 10 8 10 17 10 13 15 15 13 8 9
14 14 13 12 10 9 8 6 4 2 2 2 4 5 6 7 8 8 8 8 9 9 10 11 9 8 8 7 8 9 9 11 12 10 13 11 16 19 18 11 4 5 14
13 13 12 10 7 5 4 2 3 4 5 5 6 7 8 8 9 9 8 8 8 9 9 9 8 8 7 8 9 11 12 13 13 12 7 16 19 20 15 11 15 17 16
Wind_Direction
218 217 224 241 243 235 232 232 233 232 224 218 221 220 222 238 254 257 270 278 284 289 291 286 282 284 278 267 252 240 244 236 222 200 193 192 205 207 181 112 64 31 18
228 227 236 250 242 244 237 235 236 237 235 236 236 237 237 244 255 261 268 275 280 283 284 284 280 282 279 269 256 240 242 238 228 219 219 222 232 246 270 325 341 341 348
243 245 251 255 246 245 246 241 235 236 236 241 248 253 253 254 260 264 268 273 276 278 277 280 277 279 278 272 261 247 244 239 236 231 233 236 238 245 264 285 297 310 321
253 253 256 258 252 249 251 257 258 253 253 249 253 255 259 256 260 263 268 271 272 272 273 274 272 276 274 270 264 251 247 243 242 242 240 239 240 245 248 250 263 277 288
252 257 259 261 260 259 260 264 269 270 267 263 261 261 263 260 262 265 267 268 270 271 271 271 269 269 270 269 263 258 251 247 245 244 245 247 247 247 250 255 260 261 268
247 249 253 254 254 256 259 260 262 264 266 265 262 262 265 267 266 266 269 269 267 268 269 265 266 266 265 265 264 253 253 251 247 247 249 251 254 254 255 261 265 266 269
243 245 250 252 252 253 258 261 263 263 264 264 258 260 262 265 267 268 267 268 269 267 267 268 267 266 264 261 260 254 244 255 250 250 255 258 261 261 262 262 262 264 266
250 248 253 254 254 256 257 258 258 261 264 262 255 258 261 266 269 270 267 266 267 268 266 266 267 267 264 263 259 253 250 239 253 258 257 260 260 261 259 262 263 267 271
257 257 260 263 263 261 260 263 265 264 265 267 262 248 248 253 277 284 279 269 265 263 265 266 265 266 267 265 259 253 248 250 253 259 253 259 260 262 266 270 274 278 281
261 264 262 263 263 264 263 265 265 267 268 266 264 260 258 259 266 280 277 278 277 261 259 259 260 260 258 260 259 259 250 243 250 248 243 241 270 283 285 283 286 285 281
251 256 257 259 259 260 261 261 259 259 262 267 269 271 269 262 262 262 272 274 277 270 258 259 259 257 255 253 255 250 255 245 239 238 241 238 223 246 271 281 283 279 282
250 256 253 255 259 264 266 268 266 262 268 272 276 269 275 269 270 265 273 271 271 271 273 273 260 261 259 251 251 251 255 252 246 258 265 263 263 267 267 269 264 279 285
248 246 249 256 261 256 254 259 264 266 268 268 270 279 277 281 278 280 271 270 268 271 267 272 263 264 261 254 254 257 244 242 273 277 278 271 273 270 268 267 275 279 276
246 241 240 250 260 258 255 255 261 267 266 267 267 269 273 279 284 289 286 273 272 270 269 269 271 267 259 256 259 255 253 270 275 270 274 262 259 262 265 269 275 279 279
244 244 247 256 255 254 258 262 264 273 262 261 264 269 270 275 280 284 281 275 272 267 275 281 268 271 274 257 247 251 261 264 268 272 270 266 265 267 268 271 277 276 278
247 249 252 254 257 256 261 270 274 273 271 269 258 264 263 268 275 275 279 275 273 269 263 277 274 265 254 252 255 259 260 267 271 267 263 260 262 264 275 276 276 279 281
246 248 251 253 257 260 262 264 265 269 272 271 269 275 273 274 277 279 277 275 271 270 270 269 268 266 258 252 251 258 258 256 254 256 261 268 272 274 277 278 274 276 281
247 247 251 256 260 260 262 266 268 273 276 279 284 285 279 282 283 282 280 276 275 273 265 271 268 256 244 243 240 242 246 255 264 271 272 269 268 270 273 273 281 282 284
237 242 248 254 260 266 270 275 281 277 273 282 287 285 290 287 279 277 275 273 270 265 258 254 254 245 240 233 239 249 264 265 270 272 265 272 277 277 279 278 275 273 275
248 251 255 259 261 264 268 278 261 255 250 258 266 274 282 283 276 268 259 260 262 265 263 257 249 239 239 254 246 252 257 263 265 270 275 275 271 275 280 280 279 284 288
236 236 240 244 245 228 276 198 190 184 180 133 73 279 180 258 292 296 296 292 280 268 255 249 257 272 255 251 258 269 270 274 286 286 264 263 284 284 281 283 290 291 289
200 193 183 149 128 132 138 130 113 108 100 94 73 47 26 347 300 298 296 291 283 270 263 259 260 262 259 264 263 266 278 288 302 276 279 251 275 273 277 284 286 280 279
163 143 131 130 132 117 111 113 103 95 88 96 78 335 314 313 295 282 277 269 270 277 280 276 269 263 262 264 269 273 279 281 286 293 294 293 280 278 284 295 290 286 277
137 130 128 122 119 113 101 94 91 82 53 6 316 305 309 297 286 287 289 290 288 284 280 276 271 272 269 267 270 268 270 279 290 290 289 296 297 297 301 303 291 267 260
139 132 120 111 102 101 95 79 65 42 345 318 301 299 295 289 293 299 295 284 274 270 271 279 281 271 260 254 260 264 276 282 291 298 296 278 306 316 319 319 253 271 303
138 128 121 115 111 98 85 26 332 322 311 310 313 312 309 305 305 303 301 294 282 273 271 271 268 268 265 262 266 274 276 281 288 304 277 303 315 327 327 319 305 315 318
Height
1559 1561 1562 1563 1564 1566 1567 1568 1568 1569 1569 1570 1571 1571 1571 1571 1571 1572 1572 1572 1571 1571 1569 1569 1568 1568 1567 1566 1566 1566 1566 1566 1565 1564 1564 1564 1563 1563 1562 1562 1561 1561 1561
1558 1560 1560 1561 1563 1564 1565 1566 1567 1568 1568 1568 1569 1569 1569 1569 1569 1570 1570 1571 1570 1570 1569 1568 1567 1566 1566 1565 1565 1565 1565 1565 1565 1564 1564 1563 1563 1563 1562 1562 1561 1561 1560
1556 1557 1558 1560 1561 1563 1563 1564 1565 1565 1566 1566 1566 1566 1567 1567 1567 1567 1567 1568 1569 1568 1568 1568 1566 1565 1564 1564 1564 1563 1563 1563 1564 1563 1563 1562 1561 1562 1561 1561 1561 1560 1560
1554 1555 1556 1558 1560 1560 1561 1562 1563 1563 1563 1564 1564 1565 1565 1565 1565 1565 1565 1564 1565 1565 1565 1565 1564 1564 1563 1562 1562 1562 1562 1561 1561 1561 1561 1561 1560 1560 1560 1559 1559 1559 1558
1552 1552 1553 1555 1556 1557 1558 1559 1559 1560 1560 1560 1561 1562 1562 1562 1562 1562 1561 1561 1561 1561 1562 1562 1561 1561 1561 1560 1560 1559 1559 1560 1559 1559 1559 1559 1558 1558 1558 1558 1557 1557 1556
1549 1550 1551 1552 1553 1554 1555 1555 1556 1557 1558 1558 1559 1559 1558 1558 1558 1557 1557 1557 1556 1556 1557 1557 1557 1557 1557 1558 1558 1558 1557 1557 1557 1558 1557 1556 1556 1556 1555 1555 1555 1554 1554
1546 1547 1547 1549 1549 1550 1551 1552 1554 1554 1554 1554 1555 1554 1553 1554 1553 1552 1552 1552 1552 1552 1552 1553 1553 1554 1554 1553 1553 1555 1555 1554 1554 1555 1555 1555 1555 1554 1553 1552 1552 1552 1552
1541 1542 1543 1545 1546 1547 1548 1549 1550 1550 1549 1551 1551 1550 1549 1548 1546 1546 1546 1546 1547 1547 1548 1548 1547 1548 1549 1550 1550 1550 1551 1552 1551 1552 1552 1551 1551 1551 1550 1549 1549 1549 1549
1537 1538 1539 1540 1541 1542 1543 1544 1545 1545 1544 1544 1545 1547 1544 1541 1540 1540 1540 1540 1540 1542 1543 1543 1543 1544 1544 1544 1545 1546 1546 1547 1548 1548 1548 1547 1548 1548 1548 1547 1546 1546 1546
1533 1533 1534 1535 1537 1537 1537 1538 1539 1539 1539 1538 1539 1539 1539 1537 1536 1535 1535 1534 1535 1535 1536 1536 1536 1535 1537 1538 1540 1543 1543 1540 1542 1545 1544 1542 1543 1546 1546 1545 1543 1544 1544
1527 1528 1529 1530 1531 1531 1531 1530 1531 1532 1532 1533 1532 1533 1533 1532 1531 1531 1528 1530 1529 1529 1529 1529 1528 1527 1528 1528 1530 1533 1538 1532 1529 1530 1534 1534 1534 1538 1538 1542 1540 1540 1540
1521 1523 1524 1525 1526 1525 1525 1525 1525 1526 1528 1527 1526 1526 1526 1526 1526 1524 1524 1522 1523 1523 1523 1523 1521 1521 1520 1521 1518 1521 1519 1526 1528 1526 1529 1530 1530 1531 1531 1530 1531 1532 1533
1514 1517 1518 1520 1520 1520 1520 1521 1520 1521 1522 1522 1522 1521 1520 1520 1521 1520 1518 1516 1515 1516 1515 1515 1514 1514 1513 1513 1514 1513 1515 1522 1521 1522 1521 1523 1525 1526 1525 1526 1526 1525 1524
1509 1510 1512 1513 1514 1515 1515 1515 1515 1516 1515 1515 1514 1515 1514 1514 1514 1515 1514 1514 1511 1510 1509 1508 1508 1507 1506 1506 1507 1512 1513 1515 1514 1516 1518 1518 1518 1519 1520 1519 1518 1518 1517
1504 1506 1507 1508 1509 1510 1510 1509 1509 1510 1509 1508 1508 1509 1509 1508 1508 1509 1508 1508 1507 1506 1504 1503 1503 1502 1502 1505 1507 1506 1509 1508 1510 1511 1512 1512 1510 1512 1512 1511 1512 1511 1511
1500 1501 1502 1503 1503 1504 1504 1503 1503 1503 1503 1503 1502 1502 1502 1502 1502 1502 1503 1503 1503 1502 1501 1499 1499 1498 1499 1499 1499 1502 1504 1503 1505 1506 1507 1506 1505 1506 1506 1506 1507 1505 1504
1495 1496 1497 1497 1498 1498 1499 1499 1499 1499 1498 1497 1497 1497 1497 1497 1496 1497 1497 1498 1497 1497 1496 1496 1495 1494 1495 1496 1497 1500 1500 1499 1500 1501 1502 1501 1502 1500 1501 1501 1502 1500 1498
1491 1492 1492 1492 1494 1494 1494 1494 1494 1494 1494 1493 1492 1493 1493 1492 1492 1493 1494 1494 1494 1493 1493 1494 1493 1493 1492 1492 1494 1496 1495 1496 1497 1498 1499 1498 1497 1495 1495 1495 1496 1494 1491
1487 1487 1488 1489 1490 1490 1490 1490 1490 1490 1490 1490 1490 1491 1489 1489 1489 1489 1490 1490 1490 1491 1490 1491 1491 1490 1490 1491 1492 1492 1491 1494 1495 1496 1495 1493 1493 1492 1491 1491 1489 1487 1488
1484 1484 1485 1486 1486 1486 1486 1487 1488 1488 1488 1487 1488 1488 1486 1486 1486 1487 1488 1488 1489 1489 1489 1489 1489 1489 1489 1489 1490 1491 1491 1491 1492 1492 1491 1490 1489 1488 1487 1484 1484 1483 1482
1481 1482 1483 1484 1483 1483 1483 1485 1486 1487 1486 1486 1487 1486 1485 1485 1486 1487 1488 1488 1488 1487 1487 1487 1487 1487 1488 1488 1488 1488 1488 1488 1489 1487 1487 1487 1485 1483 1482 1480 1479 1479 1478
1480 1481 1482 1482 1482 1482 1483 1484 1485 1487 1486 1486 1487 1486 1485 1485 1485 1486 1486 1486 1486 1486 1486 1486 1486 1486 1486 1486 1486 1485 1485 1485 1485 1484 1483 1484 1481 1480 1478 1477 1476 1475 1473
1480 1480 1481 1482 1483 1484 1484 1485 1484 1487 1487 1487 1487 1486 1485 1484 1485 1485 1484 1484 1484 1483 1484 1484 1484 1484 1484 1483 1483 1482 1482 1482 1482 1482 1480 1479 1478 1477 1475 1473 1471 1469 1467
1481 1481 1482 1483 1484 1485 1485 1485 1486 1488 1488 1487 1487 1486 1485 1484 1483 1483 1483 1482 1482 1482 1482 1482 1482 1481 1481 1481 1480 1480 1480 1479 1479 1479 1477 1474 1474 1473 1471 1468 1465 1464 1464
1483 1483 1484 1485 1485 1487 1487 1487 1488 1488 1488 1488 1487 1485 1484 1483 1482 1482 1481 1480 1480 1480 1480 1480 1479 1479 1478 1478 1478 1478 1478 1477 1476 1476 1474 1472 1470 1467 1464 1462 1461 1462 1461
1484 1485 1485 1486 1487 1488 1488 1488 1488 1488 1488 1487 1485 1484 1483 1482 1481 1480 1479 1478 1478 1478 1478 1478 1477 1477 1477 1477 1476 1476 1476 1475 1474 1473 1471 1469 1465 1463 1459 1457 1458 1456 1454